Volver al catálogo

KUIPER-00114

ActivoComunicacionesLEO
NORAD 65151·PAYLOAD·🇺🇸 United States

Lanzado Aug 11, 2025 desde Cape Canaveral Space Force Station

Loading…

Próximos Pases (próximas 24 horas)

TLE

ActualizadoSource: CelesTrak SupGP

Época: Sep 15, 2026, 03:42 UTC

1 65151C 25171V   26258.15421296 -.00003777  00000+0 -49434-3 0  2587
2 65151  51.8992  57.7783 0000618 119.1646 278.0268 14.79940327    14

Sigue KUIPER-00114 en tiempo real con AllMySat

Download on the App Store